Home > Weather > Belize City > Past weeks

Flag for Belize Past Weather in Belize City, Belize — Yesterday and Last 2 Weeks

Now
82 °F

Thunderstorms. Passing clouds.


Feels Like: 89 °F
Forecast: 82 / 87 °F
Wind: 8 mph from East

Location: Belize / Phillip Goldston Intl. Airport

Current Time: Jul 1, 2016 at 12:13:14 AM

Latest Report: Jun 30, 2016 at 10:00 PM


Visibility: N/A

Pressure: 30.02 "Hg

Humidity: 79%

Dew Point: 75 °F

Location of Belize CityLocation

Past Weather in Belize City — Graph

°F

Belize City Temperature Yesterday

Maximum temperature yesterday: 90 °F (at 11:00 AM)
Minimum temperature yesterday: 82 °F (at 5:00 AM)
Average temperature yesterday: 86 °F

High & Low Weather Summary for the Past Weeks

 TemperatureHumidityPressure
High91 °F (Jun 16, 1:00 PM)100% (Jun 18, 6:00 AM)30.05 "Hg (Jun 18, 6:00 AM)
Low72 °F (Jun 19, 6:00 AM)38% (Jun 30, 12:00 PM)29.86 "Hg (Jun 17, 4:00 PM)
Average83 °F84%29.97 "Hg
* Reported Jun 16 5:00 AM — Jun 30 10:00 PM, Belize City, Weather by CustomWeather, © 2016

Note: Actual official high and low records may vary slightly from our data, if they occured in-between our weather recording intervals... More about our weather records

Advertising

Belize City Weather History for the Previous 24 Hours

Scroll right to see more
 ConditionsComfort  
Time TempWeatherWind HumidityBarometerVisibility
10:00 PM
Thu, Jun 30
82 °FThunderstorms. Passing clouds.8 mph79%30.02 "HgN/A
9:00 PM82 °FPassing clouds.12 mph79%30.01 "HgN/A
8:00 PM84 °FPassing clouds.9 mph84%29.99 "HgN/A
7:00 PM84 °FPassing clouds.12 mph84%29.98 "HgN/A
6:00 PM86 °FPartly sunny.12 mph79%29.96 "HgN/A
5:00 PM86 °FScattered clouds.15 mph79%29.95 "HgN/A
4:00 PM88 °FPartly sunny.15 mph75%29.92 "HgN/A
3:00 PM90 °FScattered clouds.15 mph75%29.93 "HgN/A
2:00 PM90 °FScattered clouds.12 mph71%29.93 "HgN/A
1:00 PM90 °FScattered clouds.12 mph71%29.95 "HgN/A
12:00 PM90 °FPartly sunny.12 mph38%29.97 "HgN/A
11:00 AM90 °FScattered clouds.12 mph71%29.97 "HgN/A
10:00 AM86 °FScattered clouds.12 mph79%29.98 "HgN/A
9:00 AM86 °FScattered clouds.10 mph75%29.98 "HgN/A
8:00 AM86 °FScattered clouds.9 mph79%29.98 "HgN/A
7:00 AM84 °FPassing clouds.6 mph84%29.96 "HgN/A
6:00 AM82 °FScattered clouds.5 mph89%29.96 "HgN/A
5:00 AM82 °FPassing clouds.3 mph84%29.95 "HgN/A
Weather by CustomWeather, © 2016

See weather overviewHow to use our weather pages